Zurück zum Katalog

FENGYUN 1C DEB

AktivPO
NORAD 35174·DEBRIS·🇨🇳 China

Gestartet May 10, 1999 von Taiyuan Satellite Launch Center

Loading…

Nächste Überflüge (nächste 24 Stunden)

TLE

AktuellSource: Space-Track

Epoche: Sep 14, 2026, 07:25 UTC

1 35174U 99025DNE 26257.30962041  .00031670  00000-0  12879-2 0  9998
2 35174  98.9595 283.0090 0101705 355.6191   4.4138 15.19771065943236

Verfolge FENGYUN 1C DEB in Echtzeit mit AllMySat

Download on the App Store